Location: Carrières
(48.9495°N, 2.0407°E)
Time: 20:05:30
(UTC+00:00)

Transit 2A Rocket - Pass Details

Date: 27 April 2024
Orbit: 585 x 908 km, 66.7° (Epoch: 18 May)

Event Time Altitude Azimuth Distance (km) Brightness Sun altitude
Rises 11:34:33 0° 253° (WSW) 2,950 8.1 55.0°
Reaches altitude 10° 11:37:04 10° 266° (W) 2,091 7.4 55.0°
Maximum altitude 11:41:05 27° 324° (NW) 1,359 6.3 55.1°
Drops below altitude 10° 11:45:26 10° 22° (NNE) 2,276 7.2 55.1°
Sets 11:48:18 0° 34° (NE) 3,267 8.0 55.1°
